TimeCDT,TemperatureF,Dew PointF,Humidity,Sea Level PressureIn,VisibilityMPH,Wind Direction,Wind SpeedMPH,Gust SpeedMPH,PrecipitationIn,Events,Conditions,WindDirDegrees,DateUTC
12:15 AM,29.5,28.4,96,29.61,1.2,NNE,15.0,19.6,N/A,,Overcast,20,2013-03-25 05:15:00
12:35 AM,29.1,28.4,97,29.62,1.0,NNE,12.7,-,N/A,,Overcast,20,2013-03-25 05:35:00
1:15 AM,28.8,28.4,99,29.61,1.2,North,15.0,-,N/A,,Overcast,10,2013-03-25 06:15:00
1:35 AM,28.6,28.0,98,29.61,1.5,North,13.8,-,N/A,,Overcast,10,2013-03-25 06:35:00
1:55 AM,28.6,28.0,98,29.61,1.5,North,11.5,-,N/A,,Overcast,360,2013-03-25 06:55:00
2:15 AM,28.4,27.9,98,29.62,2.0,North,11.5,-,N/A,,Overcast,360,2013-03-25 07:15:00
2:35 AM,28.4,27.9,98,29.61,2.0,North,13.8,-,N/A,,Overcast,360,2013-03-25 07:35:00
2:55 AM,28.4,27.9,98,29.61,2.5,North,12.7,-,N/A,,Overcast,360,2013-03-25 07:55:00
3:15 AM,28.4,27.9,98,29.61,2.5,North,11.5,-,N/A,,Overcast,360,2013-03-25 08:15:00
3:35 AM,28.4,27.7,97,29.62,2.0,North,10.4,-,N/A,,Overcast,360,2013-03-25 08:35:00
4:15 AM,29.1,25.9,88,29.61,7.0,North,13.8,-,N/A,,Overcast,360,2013-03-25 09:15:00
4:35 AM,29.5,25.0,83,29.61,10.0,North,15.0,-,N/A,,Overcast,360,2013-03-25 09:35:00
4:55 AM,29.7,25.0,83,29.61,10.0,North,13.8,-,N/A,,Overcast,360,2013-03-25 09:55:00
5:15 AM,29.8,25.2,83,29.62,10.0,North,12.7,-,N/A,,Overcast,350,2013-03-25 10:15:00
5:35 AM,30.0,25.3,83,29.62,10.0,North,13.8,-,N/A,,Overcast,350,2013-03-25 10:35:00
5:55 AM,30.0,25.5,83,29.62,10.0,North,13.8,-,N/A,,Overcast,350,2013-03-25 10:55:00
6:15 AM,30.0,25.9,85,29.63,10.0,North,12.7,-,N/A,,Overcast,360,2013-03-25 11:15:00
6:35 AM,30.2,25.7,83,29.63,10.0,North,12.7,-,N/A,,Overcast,350,2013-03-25 11:35:00
6:55 AM,30.4,25.9,83,29.64,10.0,North,15.0,-,N/A,,Overcast,350,2013-03-25 11:55:00
7:35 AM,30.4,27.5,89,29.65,7.0,North,12.7,-,N/A,,Overcast,350,2013-03-25 12:35:00
7:55 AM,30.9,27.5,87,29.66,10.0,North,13.8,-,N/A,,Overcast,350,2013-03-25 12:55:00
8:15 AM,31.3,28.0,88,29.66,5.0,North,16.1,-,N/A,,Overcast,350,2013-03-25 13:15:00
8:35 AM,31.1,28.2,89,29.67,10.0,NNW,16.1,-,N/A,,Overcast,340,2013-03-25 13:35:00
8:55 AM,31.6,27.9,86,29.68,10.0,North,15.0,-,N/A,,Overcast,350,2013-03-25 13:55:00
9:15 AM,32.0,27.7,84,29.68,10.0,North,16.1,-,N/A,,Overcast,350,2013-03-25 14:15:00
9:35 AM,32.0,27.7,84,29.69,10.0,North,16.1,-,N/A,,Overcast,360,2013-03-25 14:35:00
10:15 AM,32.7,28.4,84,29.70,10.0,North,15.0,-,N/A,,Overcast,360,2013-03-25 15:15:00
10:35 AM,33.1,28.0,82,29.71,10.0,North,18.4,-,N/A,,Mostly Cloudy,360,2013-03-25 15:35:00
10:55 AM,33.8,27.7,78,29.72,10.0,North,18.4,23.0,N/A,,Overcast,360,2013-03-25 15:55:00
11:15 AM,33.8,28.2,80,29.73,10.0,North,17.3,24.2,N/A,,Overcast,350,2013-03-25 16:15:00
11:35 AM,33.8,28.6,81,29.74,10.0,North,17.3,-,N/A,,Overcast,350,2013-03-25 16:35:00
11:55 AM,33.8,28.2,80,29.74,10.0,North,18.4,24.2,N/A,,Overcast,350,2013-03-25 16:55:00
12:15 PM,34.0,28.0,79,29.75,10.0,North,17.3,24.2,N/A,,Overcast,350,2013-03-25 17:15:00
12:35 PM,34.0,27.5,77,29.76,10.0,North,19.6,23.0,N/A,,Overcast,360,2013-03-25 17:35:00
12:55 PM,34.2,27.3,76,29.76,10.0,North,18.4,25.3,N/A,,Overcast,360,2013-03-25 17:55:00
1:15 PM,34.2,27.3,76,29.77,10.0,North,20.7,26.5,N/A,,Overcast,360,2013-03-25 18:15:00
1:35 PM,34.2,27.5,77,29.78,10.0,North,19.6,-,N/A,,Overcast,360,2013-03-25 18:35:00
2:15 PM,34.2,27.1,75,29.78,10.0,North,16.1,26.5,N/A,,Overcast,360,2013-03-25 19:15:00
2:35 PM,34.2,28.0,78,29.80,10.0,North,17.3,-,N/A,,Overcast,350,2013-03-25 19:35:00
2:55 PM,34.3,28.9,81,29.80,10.0,North,19.6,26.5,N/A,,Overcast,350,2013-03-25 19:55:00
3:15 PM,34.2,29.1,82,29.81,10.0,North,20.7,-,N/A,,Overcast,350,2013-03-25 20:15:00
3:35 PM,34.5,29.1,81,29.82,10.0,North,19.6,25.3,N/A,,Overcast,350,2013-03-25 20:35:00
4:15 PM,34.3,29.3,82,29.84,10.0,North,18.4,23.0,N/A,,Overcast,360,2013-03-25 21:15:00
4:35 PM,34.3,29.1,81,29.85,10.0,North,18.4,-,N/A,,Overcast,350,2013-03-25 21:35:00
4:55 PM,34.3,28.9,81,29.86,10.0,North,17.3,-,N/A,,Overcast,350,2013-03-25 21:55:00
5:15 PM,34.2,28.9,81,29.87,10.0,North,18.4,25.3,N/A,,Overcast,350,2013-03-25 22:15:00
5:35 PM,34.3,28.9,81,29.87,10.0,North,18.4,-,N/A,,Overcast,350,2013-03-25 22:35:00
5:55 PM,34.5,28.8,79,29.88,10.0,NNW,19.6,-,N/A,,Overcast,340,2013-03-25 22:55:00
6:15 PM,34.5,28.6,79,29.90,10.0,NNW,20.7,26.5,N/A,,Overcast,340,2013-03-25 23:15:00
6:35 PM,34.0,28.4,80,29.91,10.0,NNW,20.7,25.3,N/A,,Overcast,340,2013-03-25 23:35:00
6:55 PM,33.4,28.2,81,29.92,10.0,NNW,17.3,-,N/A,,Mostly Cloudy,340,2013-03-25 23:55:00
7:15 PM,33.3,28.8,84,29.93,10.0,NNW,12.7,-,N/A,,Overcast,340,2013-03-26 00:15:00
7:35 PM,33.1,29.3,86,29.94,10.0,NNW,13.8,-,N/A,,Overcast,340,2013-03-26 00:35:00
7:55 PM,33.1,29.5,87,29.95,10.0,NNW,13.8,-,N/A,,Overcast,340,2013-03-26 00:55:00
8:15 PM,32.9,29.8,88,29.96,10.0,NNW,15.0,20.7,N/A,,Overcast,340,2013-03-26 01:15:00
8:35 PM,32.5,30.0,90,29.97,10.0,NNW,11.5,-,N/A,,Overcast,330,2013-03-26 01:35:00
8:55 PM,32.5,30.2,91,29.98,10.0,NNW,10.4,-,N/A,,Overcast,330,2013-03-26 01:55:00
9:15 PM,32.4,30.6,93,29.98,10.0,NW,9.2,-,N/A,,Overcast,310,2013-03-26 02:15:00
9:35 PM,32.0,31.1,96,29.99,10.0,NW,8.1,-,N/A,,Overcast,320,2013-03-26 02:35:00
9:55 PM,32.0,31.5,98,29.99,2.5,NNW,8.1,-,N/A,,Overcast,330,2013-03-26 02:55:00
10:15 PM,32.0,31.6,99,30.00,4.0,NW,10.4,-,N/A,,Overcast,320,2013-03-26 03:15:00
10:35 PM,32.0,31.8,99,30.01,7.0,NNW,12.7,-,N/A,,Overcast,330,2013-03-26 03:35:00
10:55 PM,32.0,31.6,99,30.00,10.0,NW,13.8,-,N/A,,Overcast,320,2013-03-26 03:55:00
11:15 PM,31.8,31.1,97,30.01,10.0,NW,9.2,-,N/A,,Overcast,320,2013-03-26 04:15:00
11:35 PM,31.6,31.1,98,30.01,10.0,NW,8.1,-,N/A,,Overcast,310,2013-03-26 04:35:00
11:55 PM,31.8,31.3,98,30.01,10.0,NW,8.1,-,N/A,,Overcast,310,2013-03-26 04:55:00